FW0416 Weather Reports


time (UTC)temp
F
wind
direction
speed
knots
gust
knots
rain 1hr
in
rain 24hr
in
rain mn
in
humidity
%
barometer
mb
20260505011856 71 156 0.0 0.0 0.00 0.00 0.00 52 1009.3
20260505011353 71 143 0.0 0.0 0.00 0.00 0.00 51 1009.4
20260505010849 72 145 0.0 0.0 0.00 0.00 0.00 51 1009.2
20260505010345 72 133 0.0 0.0 0.00 0.00 0.00 50 1009.4
20260505005841 73 159 0.0 0.9 0.00 0.00 0.00 49 1009.4
20260505005338 73 153 0.0 0.0 0.00 0.00 0.00 48 1009.2
20260505004836 73 172 2.6 2.6 0.00 0.00 0.00 48 1009.1
20260505004331 73 143 1.7 3.5 0.00 0.00 0.00 48 1009.3
20260505003829 73 171 0.9 0.9 0.00 0.00 0.00 47 1009.2
20260505003326 74 157 0.9 0.9 0.00 0.00 0.00 47 1009.2
20260505002822 74 164 0.9 0.9 0.00 0.00 0.00 48 1009.1
20260505002319 74 143 0.9 1.7 0.00 0.00 0.00 46 1009.2
20260505001818 75 139 1.7 3.5 0.00 0.00 0.00 46 1009.2
20260505001314 75 137 1.7 2.6 0.00 0.00 0.00 46 1009.2
20260505000812 75 148 0.0 0.0 0.00 0.00 0.00 45 1009.1
20260505000310 75 156 3.5 3.5 0.00 0.00 0.00 45 1009.2
20260504235806 75 168 2.6 2.6 0.00 0.00 0.00 44 1009.1
20260504235304 75 160 1.7 2.6 0.00 0.00 0.00 45 1009.3
20260504234759 75 144 0.9 1.7 0.00 0.00 0.00 44 1009.3
20260504234257 76 167 2.6 2.6 0.00 0.00 0.00 44 1009.3
20260504233753 76 137 3.5 5.2 0.00 0.00 0.00 44 1009.3
20260504233249 76 178 3.5 3.5 0.00 0.00 0.00 43 1009.4
20260504232746 76 154 0.0 0.0 0.00 0.00 0.00 44 1009.2
20260504232243 76 158 0.9 0.9 0.00 0.00 0.00 44 1009.5
20260504231740 77 156 8.7 11.3 0.00 0.00 0.00 43 1009.4
20260504231236 77 141 3.5 3.5 0.00 0.00 0.00 43 1009.4
20260504230732 77 165 1.7 2.6 0.00 0.00 0.00 43 1009.4
20260504230231 77 162 0.0 0.0 0.00 0.00 0.00 43 1009.5
20260504225729 77 136 2.6 2.6 0.00 0.00 0.00 43 1009.4
20260504225225 77 157 1.7 1.7 0.00 0.00 0.00 42 1009.5
20260504224722 77 156 4.3 6.1 0.00 0.00 0.00 42 1009.4
20260504224220 78 223 1.7 1.7 0.00 0.00 0.00 43 1009.1
20260504223716 78 142 0.9 1.7 0.00 0.00 0.00 42 1009.4
20260504223211 77 155 0.0 0.0 0.00 0.00 0.00 42 1009.4
20260504222709 77 134 6.1 9.6 0.00 0.00 0.00 41 1009.5
20260504222205 78 136 5.2 6.1 0.00 0.00 0.00 41 1009.5
20260504221703 78 243 1.7 3.5 0.00 0.00 0.00 40 1009.5
20260504221200 78 184 1.7 1.7 0.00 0.00 0.00 41 1009.6
20260504220656 78 179 1.7 3.5 0.00 0.00 0.00 41 1009.3
20260504220154 78 171 4.3 6.1 0.00 0.00 0.00 41 1009.6
20260504215650 78 275 1.7 1.7 0.00 0.00 0.00 41 1009.4
20260504215147 78 164 2.6 5.2 0.00 0.00 0.00 40 1009.2
20260504214643 78 140 2.6 3.5 0.00 0.00 0.00 40 1009.5
20260504214139 78 173 1.7 5.2 0.00 0.00 0.00 40 1009.5
20260504213636 78 158 6.1 7.8 0.00 0.00 0.00 39 1009.5
20260504213133 78 132 1.7 2.6 0.00 0.00 0.00 41 1009.6
20260504212629 78 260 2.6 2.6 0.00 0.00 0.00 40 1009.7
20260504212126 78 176 1.7 1.7 0.00 0.00 0.00 41 1009.7
20260504211624 79 194 2.6 3.5 0.00 0.00 0.00 40 1009.5
20260504211120 78 202 0.0 0.0 0.00 0.00 0.00 41 1009.6
20260504210618 79 162 2.6 3.5 0.00 0.00 0.00 41 1009.8
20260504210109 79 155 1.7 2.6 0.00 0.00 0.00 41 1009.7
20260504205606 79 194 1.7 2.6 0.00 0.00 0.00 39 1009.7
20260504205104 78 175 1.7 3.5 0.00 0.00 0.00 39 1009.8
20260504204602 79 115 3.5 7.0 0.00 0.00 0.00 38 1009.9
20260504204101 78 155 6.1 7.8 0.00 0.00 0.00 38 1010.1
20260504203559 78 236 1.7 1.7 0.00 0.00 0.00 39 1010.0
20260504203056 78 99 5.2 7.0 0.00 0.00 0.00 39 1010.0
20260504202551 78 118 2.6 2.6 0.00 0.00 0.00 39 1010.1
20260504202049 78 159 3.5 5.2 0.00 0.00 0.00 39 1010.2
20260504201545 78 187 1.7 2.6 0.00 0.00 0.00 41 1010.5
20260504201043 78 162 5.2 7.0 0.00 0.00 0.00 39 1010.3
20260504200539 79 70 1.7 2.6 0.00 0.00 0.00 39 1010.7
20260504200036 79 193 1.7 2.6 0.00 0.00 0.00 41 1010.4
20260504195531 79 209 1.7 1.7 0.00 0.00 0.00 41 1010.6
20260504195028 79 216 3.5 3.5 0.00 0.00 0.00 40 1010.6
20260504194525 79 148 0.0 0.0 0.00 0.00 0.00 43 1010.7
20260504194020 78 206 3.5 5.2 0.00 0.00 0.00 41 1010.8
20260504193517 78 159 3.5 5.2 0.00 0.00 0.00 40 1010.9
20260504193016 78 117 9.6 13.0 0.00 0.00 0.00 40 1010.9
20260504192514 78 167 1.7 2.6 0.00 0.00 0.00 41 1011.1
20260504192012 78 145 4.3 6.1 0.00 0.00 0.00 40 1011.3
20260504191509 79 218 3.5 3.5 0.00 0.00 0.00 41 1011.2
20260504191005 79 162 8.7 8.7 0.00 0.00 0.00 39 1011.3
20260504190501 78 132 3.5 6.1 0.00 0.00 0.00 43 1011.4
20260504185957 78 145 0.0 0.9 0.00 0.00 0.00 42 1011.4
20260504185455 79 154 4.3 6.1 0.00 0.00 0.00 39 1011.3
20260504184951 79 155 2.6 3.5 0.00 0.00 0.00 40 1011.5
20260504184447 79 127 0.9 0.9 0.00 0.00 0.00 41 1011.6
20260504183942 78 167 0.0 0.0 0.00 0.00 0.00 40 1011.5
20260504183440 78 178 1.7 2.6 0.00 0.00 0.00 40 1011.8
20260504182938 78 113 6.1 9.6 0.00 0.00 0.00 39 1011.7
20260504182434 79 163 1.7 1.7 0.00 0.00 0.00 41 1011.8
20260504181932 78 270 2.6 3.5 0.00 0.00 0.00 40 1011.9
20260504181429 78 174 2.6 5.2 0.00 0.00 0.00 40 1012.1
20260504180927 79 243 3.5 5.2 0.00 0.00 0.00 40 1012.1
20260504180426 78 168 0.0 0.9 0.00 0.00 0.00 41 1012.0
20260504175924 77 184 2.6 5.2 0.00 0.00 0.00 42 1012.0
20260504175420 78 226 2.6 5.2 0.00 0.00 0.00 42 1012.2
20260504174918 78 184 1.7 1.7 0.00 0.00 0.00 43 1012.1
20260504174415 78 138 1.7 1.7 0.00 0.00 0.00 43 1012.2
20260504173913 78 161 2.6 2.6 0.00 0.00 0.00 42 1012.3
20260504173409 78 202 2.6 3.5 0.00 0.00 0.00 42 1012.5
20260504172906 77 159 2.6 3.5 0.00 0.00 0.00 43 1012.4
20260504172402 77 132 2.6 5.2 0.00 0.00 0.00 44 1012.3
20260504171859 77 194 0.9 1.7 0.00 0.00 0.00 45 1012.5
20260504171356 78 158 1.7 1.7 0.00 0.00 0.00 46 1012.6
20260504170853 77 183 1.7 1.7 0.00 0.00 0.00 45 1012.6
20260504170349 78 183 1.7 3.5 0.00 0.00 0.00 46 1012.5
20260504160308 73 153 0.9 0.9 0.00 0.00 0.00 54 1013.3
20260504150733 70 210 1.7 1.7 0.00 0.00 0.00 59 1013.9
20260504150230 70 260 1.7 1.7 0.00 0.00 0.00 60 1013.9
20260504141159 66 177 0.0 0.9 0.00 0.00 0.00 69 1014.2
20260504140656 66 154 2.6 3.5 0.00 0.00 0.00 68 1014.1
20260504140152 66 154 0.9 1.7 0.00 0.00 0.00 69 1014.0
20260504130620 62 159 0.9 0.9 0.00 0.00 0.00 77 1013.9
20260504130117 62 145 2.6 2.6 0.00 0.00 0.00 79 1014.0
20260504110508 54 136 0.0 0.0 0.00 0.00 0.00 90 1012.8
20260504100430 55 140 0.0 0.0 0.00 0.00 0.00 89 1013.4
20260504081823 55 139 0.0 0.0 0.00 0.00 0.00 87 1013.4
20260504081320 55 143 0.0 0.0 0.00 0.00 0.00 87 1013.6
20260504080816 55 143 0.0 0.0 0.00 0.00 0.00 87 1013.5
20260504080313 55 143 0.0 0.0 0.00 0.00 0.00 87 1013.6
20260504070240 55 139 0.0 0.0 0.00 0.00 0.00 87 1014.0
20260504060201 55 142 0.0 0.0 0.00 0.00 0.00 85 1014.7
20260504050629 56 146 0.0 0.0 0.00 0.00 0.00 81 1015.1
20260504050126 56 143 0.0 0.0 0.00 0.00 0.00 81 1015.1
20260504045623 56 143 0.0 0.0 0.00 0.00 0.00 82 1015.1
20260504045118 56 141 0.0 0.0 0.00 0.00 0.00 82 1015.1
20260504044616 56 141 0.0 0.0 0.00 0.00 0.00 83 1015.0
20260504044112 56 142 0.0 0.0 0.00 0.00 0.00 82 1015.0
20260504043610 56 143 0.0 0.0 0.00 0.00 0.00 81 1015.0
20260504043107 56 145 0.0 0.0 0.00 0.00 0.00 81 1015.2
20260504042604 56 144 0.0 0.0 0.00 0.00 0.00 79 1015.0
20260504042100 56 144 0.0 0.0 0.00 0.00 0.00 78 1015.0
20260504041556 56 144 0.0 0.0 0.00 0.00 0.00 79 1015.0
20260504041053 56 143 0.0 0.0 0.00 0.00 0.00 81 1015.1
20260504040550 56 144 0.0 0.0 0.00 0.00 0.00 80 1014.8
20260504040047 57 144 0.0 0.0 0.00 0.00 0.00 81 1015.0
20260504035543 57 144 0.0 0.0 0.00 0.00 0.00 81 1015.0
20260504035040 57 143 0.0 0.0 0.00 0.00 0.00 79 1015.1
20260504034538 57 141 0.0 0.0 0.00 0.00 0.00 80 1015.3
20260504034034 57 140 0.0 0.0 0.00 0.00 0.00 81 1015.1
20260504033533 57 140 0.0 0.0 0.00 0.00 0.00 81 1015.1
20260504033030 57 140 0.0 0.0 0.00 0.00 0.00 80 1015.1
20260504032527 57 138 0.0 0.0 0.00 0.00 0.00 82 1015.2
20260504032023 57 137 0.0 0.0 0.00 0.00 0.00 81 1015.1
20260504031520 57 139 0.0 0.0 0.00 0.00 0.00 80 1015.3
20260504031016 57 136 0.0 0.0 0.00 0.00 0.00 81 1015.4
20260504030514 57 133 0.0 0.0 0.00 0.00 0.00 81 1015.4
20260504030010 57 136 0.0 0.0 0.00 0.00 0.00 78 1015.4
20260504025507 57 139 0.0 0.0 0.00 0.00 0.00 78 1015.5
20260504025003 58 139 0.0 0.0 0.00 0.00 0.00 76 1015.3
20260504024500 58 139 0.0 0.0 0.00 0.00 0.00 75 1015.2
20260504023958 58 139 0.0 0.0 0.00 0.00 0.00 74 1015.2
20260504023455 58 139 0.0 0.0 0.00 0.00 0.00 74 1015.4
20260504022950 58 139 0.0 0.0 0.00 0.00 0.00 72 1015.4
20260504022446 59 139 0.0 0.0 0.00 0.00 0.00 73 1015.3
20260504021943 59 139 0.0 0.0 0.00 0.00 0.00 73 1015.2
20260504021440 59 137 0.0 0.0 0.00 0.00 0.00 72 1015.0
20260504020938 59 137 0.0 0.0 0.00 0.00 0.00 71 1015.1
20260504020434 60 141 0.0 0.0 0.00 0.00 0.00 71 1015.1
20260504015931 60 141 0.0 0.0 0.00 0.00 0.00 71 1014.9
20260504015427 60 141 0.0 0.0 0.00 0.00 0.00 70 1015.0
20260504014923 61 142 0.0 0.0 0.00 0.00 0.00 69 1015.0
20260504014419 61 142 0.0 0.0 0.00 0.00 0.00 68 1015.0
20260504013916 61 142 0.0 0.0 0.00 0.00 0.00 66 1014.9
20260504013415 62 142 0.0 0.0 0.00 0.00 0.00 65 1014.9
20260504012910 62 140 0.0 0.0 0.00 0.00 0.00 64 1014.7
20260504012408 62 135 0.0 0.0 0.00 0.00 0.00 64 1014.6